| time (UTC) | temp F | wind direction | speed knots | gust knots | rain 1hr in | rain 24hr in | rain mn in | humidity % | barometer mb |
| 20260503030051 | 43 | 310 | 7.0 | 0.0 | 0.00 | 0.00 | 0.01 | 1 | 1012.8 |
| 20260503024643 | 44 | 313 | 7.0 | 0.0 | 0.00 | 0.00 | 0.01 | 15 | 1012.9 |
| 20260503023035 | 44 | 313 | 7.0 | 0.0 | 0.00 | 0.00 | 0.01 | 9 | 1013.0 |
| 20260503021525 | 44 | 317 | 7.0 | 0.0 | 0.00 | 0.00 | 0.01 | 5 | 1013.0 |
| 20260503020016 | 43 | 321 | 6.1 | 0.0 | 0.00 | 0.00 | 0.01 | 100 | 1013.0 |
| 20260503014508 | 43 | 311 | 5.2 | 0.0 | 0.00 | 0.00 | 0.01 | 100 | 1013.1 |
| 20260503013057 | 43 | 325 | 6.1 | 0.0 | 0.00 | 0.00 | 0.01 | 100 | 1013.1 |
| 20260503011547 | 44 | 360 | 5.2 | 0.0 | 0.00 | 0.00 | 0.01 | 100 | 1013.2 |
| 20260503010040 | 44 | 313 | 5.2 | 0.0 | 0.00 | 0.00 | 0.01 | 100 | 1013.1 |
| 20260503004529 | 43 | 317 | 5.2 | 0.0 | 0.00 | 0.00 | 0.01 | 100 | 1012.9 |
| 20260503003020 | 43 | 312 | 5.2 | 0.0 | 0.00 | 0.00 | 0.01 | 100 | 1012.9 |
| 20260503001511 | 43 | 304 | 5.2 | 0.0 | 0.00 | 0.00 | 0.01 | 100 | 1012.8 |
| 20260503000002 | 43 | 309 | 6.1 | 0.0 | 0.00 | 0.00 | 0.01 | 100 | 1012.7 |
| 20260502234653 | 43 | 302 | 5.2 | 0.0 | 0.00 | 0.00 | 0.01 | 100 | 1012.7 |
| 20260502233044 | 43 | 296 | 4.3 | 0.0 | 0.00 | 0.00 | 0.01 | 100 | 1012.7 |
| 20260502231534 | 42 | 301 | 4.3 | 0.0 | 0.00 | 0.00 | 0.01 | 100 | 1012.6 |
| 20260502230025 | 42 | 303 | 4.3 | 0.0 | 0.00 | 0.00 | 0.01 | 100 | 1012.4 |
| 20260502224516 | 42 | 300 | 4.3 | 0.0 | 0.00 | 0.00 | 0.01 | 100 | 1012.5 |
| 20260502223007 | 42 | 307 | 4.3 | 0.0 | 0.00 | 0.00 | 0.01 | 100 | 1012.5 |
| 20260502221558 | 42 | 310 | 4.3 | 0.0 | 0.00 | 0.00 | 0.01 | 100 | 1012.5 |
| 20260502220049 | 42 | 302 | 5.2 | 0.0 | 0.00 | 0.00 | 0.01 | 100 | 1012.5 |
| 20260502214544 | 42 | 302 | 5.2 | 0.0 | 0.00 | 0.00 | 0.01 | 100 | 1012.5 |
| 20260502213134 | 42 | 302 | 5.2 | 0.0 | 0.00 | 0.00 | 0.01 | 100 | 1012.5 |
| 20260502211532 | 43 | 304 | 4.3 | 0.0 | 0.00 | 0.00 | 0.01 | 100 | 1012.5 |
| 20260502210113 | 42 | 312 | 5.2 | 0.0 | 0.00 | 0.00 | 0.01 | 100 | 1012.6 |
| 20260502204509 | 42 | 321 | 6.1 | 0.0 | 0.00 | 0.00 | 0.01 | 100 | 1012.5 |
| 20260502203053 | 43 | 305 | 5.2 | 0.0 | 0.00 | 0.00 | 0.01 | 100 | 1012.6 |
| 20260502201548 | 42 | 316 | 5.2 | 0.0 | 0.00 | 0.00 | 0.01 | 100 | 1012.6 |
| 20260502200035 | 43 | 319 | 6.1 | 0.0 | 0.00 | 0.00 | 0.01 | 100 | 1012.7 |
| 20260502194526 | 43 | 309 | 5.2 | 0.0 | 0.00 | 0.00 | 0.01 | 100 | 1012.9 |
| 20260502193116 | 42 | 345 | 6.1 | 0.0 | 0.00 | 0.00 | 0.01 | 100 | 1012.9 |
| 20260502191515 | 43 | 343 | 5.2 | 0.0 | 0.00 | 0.00 | 0.01 | 100 | 1012.9 |
| 20260502190057 | 43 | 345 | 4.3 | 0.0 | 0.00 | 0.00 | 0.01 | 100 | 1013.1 |
| 20260502184555 | 44 | 350 | 4.3 | 0.0 | 0.00 | 0.00 | 0.01 | 100 | 1013.0 |
| 20260502183140 | 43 | 329 | 4.3 | 0.0 | 0.00 | 0.00 | 0.01 | 100 | 1013.0 |
| 20260502181534 | 43 | 306 | 3.5 | 0.0 | 0.00 | 0.00 | 0.01 | 100 | 1013.0 |
| 20260502163023 | 42 | 338 | 6.1 | 0.0 | 0.00 | 0.00 | 0.01 | 100 | 1013.1 |
| 20260502161512 | 42 | 346 | 7.0 | 0.0 | 0.00 | 0.00 | 0.01 | 100 | 1013.0 |
| 20260502160105 | 42 | 351 | 7.8 | 0.0 | 0.00 | 0.00 | 0.01 | 100 | 1013.0 |
| 20260502151537 | 42 | 329 | 7.0 | 0.0 | 0.00 | 0.00 | 0.01 | 100 | 1013.2 |
| 20260502150129 | 42 | 336 | 7.0 | 0.0 | 0.00 | 0.00 | 0.01 | 100 | 1013.1 |
| 20260502123057 | 41 | 319 | 7.8 | 0.0 | 0.00 | 0.00 | 0.01 | 100 | 1013.6 |
| 20260502121552 | 41 | 319 | 9.6 | 0.0 | 0.00 | 0.00 | 0.01 | 100 | 1013.5 |
| 20260502120140 | 41 | 317 | 8.7 | 0.0 | 0.00 | 0.00 | 0.01 | 100 | 1013.5 |
| 20260502114529 | 40 | 315 | 9.6 | 0.0 | 0.00 | 0.00 | 0.01 | 100 | 1013.3 |
| 20260502113019 | 40 | 319 | 9.6 | 0.0 | 0.00 | 0.00 | 0.01 | 100 | 1013.3 |
| 20260502111509 | 40 | 316 | 9.6 | 0.0 | 0.00 | 0.00 | 0.01 | 100 | 1013.0 |
| 20260502104553 | 40 | 319 | 9.6 | 0.0 | 0.00 | 0.00 | 0.01 | 100 | 1012.8 |
| 20260502103058 | 40 | 313 | 10.4 | 0.0 | 0.00 | 0.00 | 0.01 | 100 | 1012.6 |
| 20260502070133 | 43 | 294 | 2.6 | 0.0 | 0.00 | 0.00 | 0.00 | 100 | 1011.1 |
| 20260502064623 | 42 | 248 | 0.9 | 0.0 | 0.00 | 0.00 | 0.00 | 100 | 1010.9 |
| 20260502063025 | 42 | 248 | 1.7 | 0.0 | 0.00 | 0.00 | 0.00 | 100 | 1011.1 |
| 20260502061505 | 42 | 209 | 0.9 | 0.0 | 0.00 | 0.00 | 0.00 | 100 | 1011.2 |
| 20260502060057 | 42 | 209 | 0.9 | 0.0 | 0.00 | 0.00 | 0.00 | 100 | 1011.0 |
| 20260502054547 | 42 | 209 | 2.6 | 0.0 | 0.00 | 0.00 | 0.00 | 100 | 1011.3 |
| 20260502053140 | 42 | 209 | 2.6 | 0.0 | 0.00 | 0.00 | 0.00 | 100 | 1011.4 |
| 20260502051533 | 42 | 209 | 2.6 | 0.0 | 0.00 | 0.00 | 0.00 | 100 | 1011.5 |
| 20260502050024 | 42 | 196 | 1.7 | 0.0 | 0.00 | 0.00 | 0.00 | 100 | 1011.6 |
| 20260502044513 | 41 | 181 | 1.7 | 0.0 | 0.00 | 0.00 | 0.00 | 100 | 1011.7 |
| 20260502043004 | 42 | 181 | 0.9 | 0.0 | 0.00 | 0.00 | 0.00 | 100 | 1011.5 |
| 20260502041556 | 42 | 181 | 0.9 | 0.0 | 0.00 | 0.00 | 0.00 | 100 | 1011.5 |
| 20260502040045 | 42 | 181 | 1.7 | 0.0 | 0.00 | 0.00 | 0.00 | 100 | 1011.5 |
| 20260502033129 | 42 | 181 | 0.9 | 0.0 | 0.00 | 0.00 | 0.01 | 100 | 1011.4 |